Showing default

QIANFAN-19, 61552

Orbit data source: Space-Track

QIANFAN-19, 61552 is a Chinese payload satellite in LEO that was launched on Tue, 15 Oct 2024 UTC via a CHANG ZHENG 6A launch vehicle from the Taiyaun Space Center, China (TSC). Payloads include a variety of satellites, spacecraft, and rockets equipped with specific instruments for various scientific and technological missions. These include communications satellites like Starlink; space stations such as the ISS; scientific satellites like the Hubble; Earth observation satellites from companies like Planet Labs, Umbra, and HawkEye 360; GPS; miniature CubeSats for education and research; and military/defense satellites.

Loading next visibility...
QIANFAN-19 details
Identifier
61552, 2024-185A
Orbit
LEO
Last TLE update6 hours ago
Origin
Flag of CNYUANX (CN / PRC)
ManufacturerGESIH/SECM
MissionOperational spacecraft
Bus & MotorQIANFAN, Unknown motor
Mass300 kg wet, ~300 kg dry
Launch date (UTC)
2024-10-15 (3 months ago)
Launch vehicle
CHANG ZHENG 6A
Launch site
Taiyaun Space Center, China (TSC)
Object type
Payload
Rocket body
Debris
Shape & HBRUnknown
Radar Cross SectionLarge (>1 m²)

Expand to show TLE details & history

TLE from 6 hours ago
0 QIANFAN-19
1 61552U 24185A   25025.53880643  .00001129  00000-0  58879-3 0  9993
2 61552  88.9905 114.6766 0005494 248.2424 111.8178 14.13856352 24279
Epoch: 2025-01-25T12:55Z
Definitive object data (Epoch: 2025-01-25T12:55:52.875Z)
Latitude-0.00005°
Longitude155.62011°
Altitude850.727 km
Speed7.426 km/s
True Right ascension07h 38m 42s
True Declination0° 00' 00"
Sunlit
Object was in full shadow at TLE epoch
Visualization TLE readout
Latitude-82.75209°
Longitude-16.48791°
Altitude870.891 km
Speed7.418 km/s
Apparent Right ascension08h 43m 00s
Apparent Declination-70° 27' 39"
Sunlit
Object is in daylight
Visualization observer readout
Local Sidereal Time20:36:53
Azimuth181.005° SSW
Elevation-59.445°
Doppler factor1
Orbital elements
Apogee altitude847.133 km
Perigee altitude839.198 km
Semi-major axis7,221.302 km
Eccentricity0.0005494
Inclination88.9905°
RAAN114.6766°
Arg. of periapsis248.2424°
True anomaly111.87623°
Mean anomaly111.8178°
Eccentric anomaly111.84702°
Mean motion3.53688 °/min
BSTAR0.00058879
Orbital period101.78 mins
Loading maneuver chart data...
Loading historical data...
Loading historical data...
Loading historical data...
Loading historical data...
Loading historical data...
Loading historical data...
Loading historical data...

QIANFAN-19 Visibility forecast

Observer location: undefined°, undefined

Span
Click to sort rows by Start time (UTC) header in descending order
Start Az.
Max El. time (UTC)
Max El. Az.
Max El.
End time (UTC)
End Az.
10 mins2025-01-26 06:00:59.172Z168.303° S2025-01-26 06:05:59.172Z112.364° ESE42.795°2025-01-26 06:10:59.172Z5.197° NNE
4 mins2025-01-26 07:46:59.172Z263.223° W2025-01-26 07:48:59.172Z286.608° WNW13.696°2025-01-26 07:50:59.172Z309.05° NW
4 mins2025-01-26 16:43:59.172Z56.489° ENE2025-01-26 16:45:59.172Z81.122° E15.224°2025-01-26 16:47:59.172Z104.791° ESE
9 mins2025-01-26 18:23:59.172Z350.643° N2025-01-26 18:27:59.172Z275.949° WNW41.574°2025-01-26 18:32:59.172Z196.096° SSW
|